When you browse on this site, cookies collect data to enhance your experience and personalize the content and advertising you see.
Visit our Privacy Policy to learn more. By continuing to use the site, you agree to this use of cookies and data.
  • în România
  • Lista ţărilor
  • Pe 7 zile
  • Temperatura apei
  • Meteo pe hartă
  • Widget-uri
  • user-avatar
    Intrare

    Meteo pe oră la Cobán

    Astăzi, 25 August, Duminică

    Timp Temperatura Precipitaţii Vânt Presiune Umiditate
    00:00 +18°C° 0 mm 1 m/s 653 mmHg 94%
    01:00 +18°C° 0 mm 1 m/s 653 mmHg 92%
    02:00 +18°C° 0 mm 1 m/s 653 mmHg 91%
    03:00 +16°C° 0 mm 1 m/s 652 mmHg 90%
    04:00 +16°C° 0 mm 1 m/s 652 mmHg 90%
    05:00 +16°C° 0 mm 1 m/s 652 mmHg 90%
    06:00 +16°C° 0 mm 1 m/s 653 mmHg 90%
    07:00 +20°C° 0 mm 1 m/s 654 mmHg 78%
    08:00 +21°C° 0 mm 0 m/s 655 mmHg 66%
    09:00 +24°C° 0 mm 0 m/s 656 mmHg 54%
    10:00 +27°C° 0 mm 1 m/s 656 mmHg 51%
    11:00 +28°C° 0 mm 1 m/s 656 mmHg 47%
    12:00 +29°C° 0 mm 1 m/s 656 mmHg 44%
    13:00 +29°C° 0.1 mm 1 m/s 655 mmHg 49%
    14:00 +28°C° 0.1 mm 2 m/s 654 mmHg 54%
    15:00 +27°C° 0.1 mm 2 m/s 653 mmHg 59%
    16:00 +26°C° 0.4 mm 1 m/s 653 mmHg 69%
    17:00 +24°C° 0.4 mm 1 m/s 653 mmHg 80%
    18:00 +22°C° 0.4 mm 1 m/s 652 mmHg 90%
    19:00 +21°C° 0 mm 1 m/s 653 mmHg 91%
    20:00 +20°C° 0 mm 1 m/s 653 mmHg 92%
    21:00 +19°C° 0 mm 1 m/s 653 mmHg 93%
    22:00 +19°C° 0 mm 1 m/s 653 mmHg 93%
    23:00 +18°C° 0 mm 1 m/s 653 mmHg 93%

    Mâine, 26 August, Luni

    Timp Temperatura Precipitaţii Vânt Presiune Umiditate
    00:00 +18°C° 0 mm 1 m/s 653 mmHg 93%
    01:00 +18°C° 0 mm 1 m/s 652 mmHg 92%
    02:00 +16°C° 0 mm 1 m/s 652 mmHg 91%
    03:00 +16°C° 0 mm 1 m/s 652 mmHg 90%
    04:00 +16°C° 0 mm 1 m/s 652 mmHg 89%
    05:00 +16°C° 0 mm 1 m/s 652 mmHg 88%
    06:00 +16°C° 0 mm 1 m/s 652 mmHg 86%
    07:00 +20°C° 0 mm 1 m/s 653 mmHg 76%
    08:00 +23°C° 0 mm 1 m/s 654 mmHg 65%
    09:00 +24°C° 0 mm 0 m/s 655 mmHg 55%
    10:00 +27°C° 0.1 mm 1 m/s 655 mmHg 52%
    11:00 +29°C° 0.1 mm 1 m/s 655 mmHg 49%
    12:00 +30°C° 0.1 mm 1 m/s 655 mmHg 46%
    13:00 +29°C° 1.1 mm 1 m/s 654 mmHg 55%
    14:00 +28°C° 1.1 mm 1 m/s 653 mmHg 64%
    15:00 +27°C° 1.1 mm 1 m/s 652 mmHg 73%
    16:00 +25°C° 0.7 mm 1 m/s 652 mmHg 78%
    17:00 +22°C° 0.7 mm 0 m/s 652 mmHg 83%
    18:00 +20°C° 0.7 mm 0 m/s 651 mmHg 88%
    19:00 +21°C° 0.2 mm 1 m/s 652 mmHg 89%
    20:00 +21°C° 0.2 mm 1 m/s 652 mmHg 91%
    21:00 +20°C° 0.2 mm 1 m/s 653 mmHg 93%
    22:00 +19°C° 0.1 mm 1 m/s 653 mmHg 93%
    23:00 +19°C° 0.1 mm 1 m/s 653 mmHg 94%

    Poimâine, 27 August, Marţi

    Timp Temperatura Precipitaţii Vânt Presiune Umiditate
    00:00 +17°C° 0.1 mm 0 m/s 653 mmHg 95%
    01:00 +17°C° 0 mm 0 m/s 653 mmHg 95%
    02:00 +16°C° 0 mm 0 m/s 652 mmHg 95%
    03:00 +16°C° 0 mm 0 m/s 652 mmHg 95%
    04:00 +16°C° 0 mm 0 m/s 652 mmHg 95%
    05:00 +16°C° 0 mm 0 m/s 652 mmHg 95%
    06:00 +18°C° 0 mm 1 m/s 652 mmHg 95%
    07:00 +18°C° 0 mm 0 m/s 653 mmHg 85%
    08:00 +21°C° 0 mm 0 m/s 654 mmHg 75%
    09:00 +23°C° 0 mm 0 m/s 655 mmHg 65%
    10:00 +27°C° 0 mm 1 m/s 655 mmHg 60%
    11:00 +28°C° 0 mm 1 m/s 655 mmHg 55%
    12:00 +29°C° 0 mm 2 m/s 655 mmHg 50%
    13:00 +28°C° 1.1 mm 1 m/s 654 mmHg 58%
    14:00 +27°C° 1.1 mm 1 m/s 653 mmHg 67%
    15:00 +26°C° 1.1 mm 1 m/s 652 mmHg 75%
    16:00 +25°C° 1 mm 1 m/s 652 mmHg 80%
    17:00 +24°C° 1 mm 1 m/s 652 mmHg 85%
    18:00 +22°C° 1 mm 1 m/s 652 mmHg 89%
    19:00 +21°C° 0.7 mm 1 m/s 653 mmHg 91%
    20:00 +20°C° 0.7 mm 1 m/s 653 mmHg 94%
    21:00 +19°C° 0.7 mm 1 m/s 654 mmHg 96%
    22:00 +19°C° 0 mm 1 m/s 654 mmHg 96%
    23:00 +19°C° 0 mm 1 m/s 653 mmHg 96%

    28 August, Miercuri

    Timp Temperatura Precipitaţii Vânt Presiune Umiditate
    00:00 +16°C° 0 mm 0 m/s 653 mmHg 96%
    01:00 +16°C° 0 mm 0 m/s 653 mmHg 96%
    02:00 +16°C° 0 mm 0 m/s 653 mmHg 96%
    03:00 +16°C° 0 mm 0 m/s 653 mmHg 96%
    04:00 +16°C° 0 mm 0 m/s 653 mmHg 95%
    05:00 +16°C° 0 mm 0 m/s 653 mmHg 95%
    06:00 +15°C° 0 mm 0 m/s 653 mmHg 95%
    07:00 +18°C° 0 mm 0 m/s 654 mmHg 86%
    08:00 +20°C° 0 mm 0 m/s 655 mmHg 77%
    09:00 +25°C° 0 mm 1 m/s 656 mmHg 68%
    10:00 +26°C° 0 mm 1 m/s 656 mmHg 63%
    11:00 +27°C° 0 mm 1 m/s 656 mmHg 59%
    12:00 +28°C° 0 mm 1 m/s 656 mmHg 54%
    13:00 +28°C° 0.4 mm 1 m/s 655 mmHg 58%
    14:00 +27°C° 0.4 mm 1 m/s 654 mmHg 62%
    15:00 +26°C° 0.4 mm 1 m/s 654 mmHg 66%
    16:00 +25°C° 0.3 mm 1 m/s 653 mmHg 74%
    17:00 +23°C° 0.3 mm 1 m/s 653 mmHg 82%
    18:00 +19°C° 0.3 mm 0 m/s 653 mmHg 90%
    19:00 +18°C° 0 mm 0 m/s 653 mmHg 92%
    20:00 +20°C° 0 mm 1 m/s 654 mmHg 94%
    21:00 +19°C° 0 mm 1 m/s 654 mmHg 95%
    22:00 +18°C° 0 mm 1 m/s 654 mmHg 96%
    23:00 +18°C° 0 mm 1 m/s 654 mmHg 96%

    29 August, Joi

    Timp Temperatura Precipitaţii Vânt Presiune Umiditate
    00:00 +16°C° 0 mm 0 m/s 654 mmHg 96%
    01:00 +15°C° 0 mm 0 m/s 654 mmHg 96%
    02:00 +15°C° 0 mm 0 m/s 653 mmHg 95%
    03:00 +15°C° 0 mm 0 m/s 653 mmHg 95%
    04:00 +15°C° 0 mm 0 m/s 653 mmHg 94%
    05:00 +15°C° 0 mm 0 m/s 653 mmHg 93%
    06:00 +14°C° 0 mm 0 m/s 653 mmHg 92%
    07:00 +17°C° 0 mm 0 m/s 654 mmHg 81%
    08:00 +20°C° 0 mm 0 m/s 655 mmHg 69%
    09:00 +23°C° 0 mm 0 m/s 656 mmHg 57%
    10:00 +26°C° 0 mm 1 m/s 656 mmHg 50%
    11:00 +28°C° 0 mm 1 m/s 656 mmHg 43%
    12:00 +29°C° 0 mm 2 m/s 656 mmHg 36%
    13:00 +28°C° 0 mm 2 m/s 655 mmHg 38%
    14:00 +28°C° 0 mm 2 m/s 655 mmHg 41%
    15:00 +28°C° 0 mm 2 m/s 654 mmHg 43%
    16:00 +25°C° 0.2 mm 2 m/s 654 mmHg 56%
    17:00 +23°C° 0.2 mm 1 m/s 653 mmHg 69%
    18:00 +21°C° 0.2 mm 1 m/s 653 mmHg 82%
    19:00 +20°C° 0 mm 1 m/s 653 mmHg 83%
    20:00 +19°C° 0 mm 1 m/s 654 mmHg 85%
    21:00 +18°C° 0 mm 1 m/s 654 mmHg 86%
    22:00 +18°C° 0 mm 1 m/s 654 mmHg 84%
    23:00 +18°C° 0 mm 1 m/s 654 mmHg 81%

    30 August, Vineri

    Timp Temperatura Precipitaţii Vânt Presiune Umiditate
    00:00 +16°C° 0 mm 1 m/s 654 mmHg 78%
    01:00 +16°C° 0 mm 1 m/s 653 mmHg 74%
    02:00 +16°C° 0 mm 1 m/s 653 mmHg 70%
    03:00 +16°C° 0 mm 1 m/s 653 mmHg 66%
    04:00 +16°C° 0 mm 1 m/s 653 mmHg 64%
    05:00 +16°C° 0 mm 1 m/s 653 mmHg 63%
    06:00 +16°C° 0 mm 1 m/s 653 mmHg 61%
    07:00 +19°C° 0 mm 1 m/s 654 mmHg 56%
    08:00 +20°C° 0 mm 0 m/s 655 mmHg 50%
    09:00 +23°C° 0 mm 0 m/s 656 mmHg 45%
    10:00 +26°C° 0 mm 1 m/s 656 mmHg 42%
    11:00 +27°C° 0 mm 1 m/s 655 mmHg 40%
    12:00 +28°C° 0 mm 2 m/s 655 mmHg 38%
    13:00 +28°C° 0 mm 2 m/s 655 mmHg 40%
    14:00 +28°C° 0 mm 2 m/s 654 mmHg 43%
    15:00 +27°C° 0 mm 2 m/s 653 mmHg 45%
    16:00 +26°C° 0 mm 1 m/s 653 mmHg 55%
    17:00 +24°C° 0 mm 1 m/s 653 mmHg 64%
    18:00 +20°C° 0 mm 0 m/s 653 mmHg 74%
    19:00 +19°C° 0.1 mm 0 m/s 653 mmHg 77%
    20:00 +20°C° 0.1 mm 1 m/s 653 mmHg 80%
    21:00 +19°C° 0.1 mm 1 m/s 654 mmHg 83%
    22:00 +19°C° 0.1 mm 1 m/s 654 mmHg 83%
    23:00 +19°C° 0.1 mm 1 m/s 654 mmHg 82%
    Arată mai mult